Weather History for KLWM - October, 2013

Change the Weather History Date:

Thursday, October 10, 2013

  Actual Average Record
Temperature  
Mean Temperature 52 °F -  
Max Temperature 62 °F 62 °F 85 °F (1939)
Min Temperature 42 °F 41 °F 27 °F (1929)
Degree Days  
Heating Degree Days 13    
Growing Degree Days 2 (Base 50)    
Moisture  
Dew Point 43 °F    
Average Humidity 81    
Maximum Humidity 89    
Minimum Humidity 58    
Precipitation  
Precipitation 0.00 in - - ()
Sea Level Pressure  
Sea Level Pressure 30.32 in    
Wind  
Wind Speed 1 mph (ENE)    
Max Wind Speed 7 mph    
Max Gust Speed -    
Visibility 7 miles    
Events Fog    
Averages and records for this station are not official NWS values.
T = Trace of Precipitation, MM = Missing Value Source: NWS Daily Summary

Daily Weather History Graph

Daily Weather History Graph

Search for Another Location

Airport or City:

Trip Planner

Search our weather history database for the weather conditions in past years. The results will help you decide how hot, cold, wet, or windy it might be!

Date:

Astronomy

Oct. 10, 2013 Rise Set
Actual Time 6:52 AM EDT 6:09 PM EDT
Civil Twilight 6:23 AM EDT 6:38 PM EDT
Nautical Twilight 5:51 AM EDT 7:10 PM EDT
Astronomical Twilight 5:18 AM EDT 7:43 PM EDT
Moon 12:46 PM EDT (10/10) 10:39 PM EDT (10/10)
Length of Visible Light 12h 14m
Length of Day
11h 17m
Waxing Crescent, 35% of the Moon is Illuminated
Oct 10
Waxing Crescent
Oct 11
First Quarter
Oct 18
Full
Oct 26
Last Quarter
Nov 3
New

Hourly Weather History & Observations

Time (EDT) Temp. Dew Point Humidity Pressure Visibility Wind Dir Wind Speed Gust Speed Precip Events Conditions
12:45 AM 44.6 °F 41.0 °F 87% 30.39 in 10.0 mi Calm Calm - N/A   Scattered Clouds
12:54 AM 45.0 °F 41.0 °F 86% 30.39 in 8.0 mi Calm Calm - N/A   Scattered Clouds
1:54 AM 44.1 °F 39.9 °F 85% 30.38 in 3.0 mi Calm Calm - N/A   Partly Cloudy
2:54 AM 45.0 °F 41.0 °F 86% 30.37 in 8.0 mi Calm Calm - N/A   Clear
3:54 AM 42.1 °F 37.9 °F 85% 30.37 in 9.0 mi Calm Calm - N/A   Clear
4:06 AM 42.8 °F 37.4 °F 81% 30.36 in 5.0 mi Calm Calm - N/A   Scattered Clouds
4:09 AM 42.8 °F 37.4 °F 81% 30.36 in 1.5 mi Calm Calm - N/A   Mostly Cloudy
4:12 AM 42.8 °F 37.4 °F 81% 30.36 in 0.5 mi Calm Calm - N/A Fog Fog
4:27 AM 42.8 °F 39.2 °F 87% 30.36 in 1.0 mi Calm Calm - N/A   Mist
4:42 AM 42.8 °F 39.2 °F 87% 30.35 in 0.5 mi Calm Calm - N/A Fog Fog
4:50 AM 42.8 °F 39.2 °F 87% 30.35 in 1.0 mi Calm Calm - N/A   Mist
4:54 AM 42.1 °F 39.0 °F 89% 30.35 in 3.0 mi Calm Calm - N/A   Mostly Cloudy
5:06 AM 42.8 °F 39.2 °F 87% 30.35 in 10.0 mi Calm Calm - N/A   Scattered Clouds
5:14 AM 42.8 °F 39.2 °F 87% 30.34 in 1.8 mi Calm Calm - N/A   Partly Cloudy
5:18 AM 42.8 °F 39.2 °F 87% 30.34 in 0.8 mi Calm Calm - N/A   Mist
5:26 AM 42.8 °F 39.2 °F 87% 30.34 in 1.2 mi Calm Calm - N/A   Scattered Clouds
5:30 AM 42.8 °F 39.2 °F 87% 30.34 in 4.0 mi Calm Calm - N/A   Partly Cloudy
5:54 AM 43.0 °F 39.9 °F 89% 30.34 in 10.0 mi Calm Calm - N/A   Clear
6:54 AM 43.0 °F 39.0 °F 86% 30.35 in 10.0 mi Calm Calm - N/A   Clear
7:47 AM 44.6 °F 41.0 °F 87% 30.36 in 2.5 mi Calm Calm - N/A   Partly Cloudy
7:54 AM 45.0 °F 41.0 °F 86% 30.36 in 7.0 mi Calm Calm - N/A   Partly Cloudy
8:54 AM 50.0 °F 45.0 °F 83% 30.35 in 10.0 mi Calm Calm - N/A   Clear
9:54 AM 53.1 °F 46.0 °F 77% 30.35 in 10.0 mi Calm Calm - N/A   Clear
10:54 AM 57.0 °F 46.9 °F 69% 30.34 in 10.0 mi Calm Calm - N/A   Clear
11:54 AM 60.1 °F 48.0 °F 64% 30.32 in 10.0 mi NE 4.6 mph - N/A   Clear
12:54 PM 61.0 °F 46.9 °F 60% 30.31 in 10.0 mi NE 6.9 mph - N/A   Clear
1:54 PM 61.0 °F 46.0 °F 58% 30.29 in 10.0 mi East 4.6 mph - N/A   Clear
2:54 PM 62.1 °F 46.9 °F 58% 30.27 in 10.0 mi Variable 3.5 mph - N/A   Clear
3:54 PM 61.0 °F 46.9 °F 60% 30.26 in 10.0 mi ENE 5.8 mph - N/A   Clear
4:54 PM 59.0 °F 48.0 °F 67% 30.25 in 10.0 mi East 4.6 mph - N/A   Clear
5:54 PM 57.0 °F 48.9 °F 74% 30.26 in 10.0 mi East 5.8 mph - N/A   Clear
6:54 PM 54.0 °F 48.9 °F 83% 30.25 in 10.0 mi NNE 3.5 mph - 0.00 in   Clear
7:54 PM 55.0 °F 48.9 °F 80% 30.25 in 10.0 mi ENE 3.5 mph - N/A   Clear
8:54 PM 53.1 °F 48.9 °F 86% 30.25 in 10.0 mi Calm Calm - N/A   Clear
9:54 PM 53.1 °F 48.9 °F 86% 30.23 in 10.0 mi North 3.5 mph - N/A   Clear
10:54 PM 51.1 °F 46.9 °F 86% 30.22 in 10.0 mi Calm Calm - N/A   Clear
11:54 PM 52.0 °F 48.0 °F 86% 30.21 in 10.0 mi Calm Calm - N/A   Clear